Regional Weather Roundup
Issued by NWS

Home | Current Version | Previous Version | Text Only | Print | Product List | Glossary Off
Versions: 1 2 3 4 5 6 7 8 9 10 11 12 13 14 15 16 17 18 19 20 21 22 23 24 25 26 27 28 29 30 31 32 33 34 35 36 37 38 39 40 41 42 43 44 45 46 47 48 49 50

000
ASUS43 KFSD 162110
RWRSD

WEATHER ROUNDUP FOR SOUTH DAKOTA
NATIONAL WEATHER SERVICE SIOUX FALLS SD
300 PM CST SAT DEC 16 2017

NOTE: "FAIR" INDICATES FEW OR NO CLOUDS BELOW 12,000 FEET WITH NO
SIGNIFICANT WEATHER AND/OR OBSTRUCTIONS TO VISIBILITY.


SDZ001>005-009-010-012>017-162200-
NORTHWEST AND NORTH CENTRAL SOUTH DAKOTA

CITY           SKY/WX    TMP DP  RH WIND       PRES   REMARKS
BUFFALO          N/A     37  23  56 NW12      29.89R
FAITH            N/A     38  27  64 N13       29.94R
MOBRIDGE       CLOUDY    42  31  64 N5        29.93R
$$

SDZ012>016-024>037-041>051-057-063-072>074-162200-
SOUTHWEST AND SOUTH CENTRAL SOUTH DAKOTA

CITY           SKY/WX    TMP DP  RH WIND       PRES   REMARKS
RAPID CTY ARPT FLURRIES  35  25  66 N17       29.94R WCI  25
PIERRE         CLOUDY    41  32  70 N14       29.93R
CUSTER         LGT SNOW  29  25  85 E6        29.86R FOG     WCI  23
ELLSWORTH AFB  LGT SNOW  34  28  80 N15       29.93  WCI  24
PHILIP         CLOUDY    40  30  67 N10       29.94F
PINE RIDGE     CLOUDY    38  28  67 NE9       29.92R
SPEARFISH      FAIR      32  28  86 W3        29.94S
WINNER         FAIR      43  33  68 N10       29.93F
$$

SDZ004>011-016>023-039-040-162200-
NORTHEAST SOUTH DAKOTA

CITY           SKY/WX    TMP DP  RH WIND       PRES   REMARKS
ABERDEEN       CLOUDY    41  32  70 N9        29.95R
WATERTOWN      CLOUDY    37  34  89 N14       29.90R
BROOKINGS      CLOUDY    39  33  79 N12       29.90R
SISSETON         N/A     38  33  82 NW7       29.93R
$$

SDZ017-020-022-023-036>040-048>070-162200-
SOUTHEAST SOUTH DAKOTA

CITY           SKY/WX    TMP DP  RH WIND       PRES   REMARKS
SIOUX FALLS    CLOUDY    44  34  67 N12       29.91R
HURON          CLOUDY    43  34  70 N10       29.93S
CHAMBERLAIN    CLOUDY    43  36  75 N6        29.94R
MITCHELL       CLOUDY    43  35  73 N10       29.93R
YANKTON        MOSUNNY   44  34  67 N15       29.89S
$$

ABBREVIATIONS USED IN REMARKS
   TC - TEMPERATURE IN CELSIUS
  WCI - WIND CHILL INDEX
   HX - HEAT INDEX
  VSB - VISIBILITY





USA.gov is the U.S. government's official web portal to all federal, state and local government web resources and services.